Location: Dugenta
(41.1333°N, 14.4500°E)
Time: 11:20:28
(UTC+00:00)

ERBS - Pass Details

Date: 03 March 2021
Orbit: 407 x 412 km, 57.0° (Epoch: 20 April)

Event Time Altitude Azimuth Distance (km) Brightness Sun altitude
Rises 17:17:19 0° 253° (WSW) 2,350 8.1 -4.9°
Reaches altitude 10° 17:19:39 10° 267° (W) 1,490 7.0 -5.3°
Maximum altitude 17:22:27 25° 325° (NW) 895 4.3 -5.9°
Drops below altitude 10° 17:25:16 10° 22° (NNE) 1,494 4.8 -6.4°
Sets 17:27:36 0° 37° (NE) 2,359 5.7 -6.8°
